EW9060 Weather Reports


time (UTC)temp
F
wind
direction
speed
knots
gust
knots
rain 1hr
in
rain 24hr
in
rain mn
in
humidity
%
barometer
mb
20260905130033 55 101 0.0 0.0 0.00 0.00 0.00 85 1014.9
20260905124536 55 109 0.0 1.7 0.00 0.00 0.00 84 1014.8
20260905123029 56 92 0.0 1.7 0.00 0.00 0.00 83 1014.8
20260905121529 56 111 0.0 2.6 0.00 0.00 0.00 83 1014.8
20260905120026 57 141 0.0 0.0 0.00 0.00 0.00 82 1014.8
20260905114537 57 136 0.0 2.6 0.00 0.00 0.00 82 1014.8
20260905113033 57 107 0.9 2.6 0.00 0.00 0.00 81 1014.8
20260905111524 57 118 1.7 5.2 0.00 0.00 0.00 80 1014.8
20260905110021 58 103 0.9 5.2 0.00 0.00 0.00 80 1014.9
20260905104522 58 121 0.0 3.5 0.00 0.00 0.00 79 1014.8
20260905103024 58 119 0.0 3.5 0.00 0.00 0.00 78 1014.7
20260905101527 58 128 0.9 2.6 0.00 0.00 0.00 77 1014.9
20260905100022 58 127 0.9 2.6 0.00 0.00 0.00 77 1014.9
20260905094515 59 130 0.9 2.6 0.00 0.00 0.00 76 1015.0
20260905093016 59 164 0.0 3.5 0.00 0.00 0.00 75 1015.1
20260905091513 59 161 0.9 3.5 0.00 0.00 0.00 74 1015.0
20260905090015 60 139 0.0 3.5 0.00 0.00 0.00 74 1015.1
20260905084509 60 121 1.7 4.3 0.00 0.00 0.00 73 1015.1
20260905083008 60 124 0.9 3.5 0.00 0.00 0.00 73 1015.2
20260905081508 60 133 0.9 4.3 0.00 0.00 0.00 73 1015.2
20260905080007 61 127 0.0 4.3 0.00 0.00 0.00 73 1015.1
20260905074504 61 182 0.0 3.5 0.00 0.00 0.00 73 1015.0
20260905073003 61 159 0.9 4.3 0.00 0.00 0.00 73 1014.8
20260905071503 61 161 0.9 4.3 0.00 0.00 0.00 71 1014.8
20260905070100 62 132 0.0 3.5 0.00 0.00 0.00 70 1014.7
20260905064600 62 150 1.7 5.2 0.00 0.02 0.00 69 1014.6
20260905063102 63 188 0.9 3.5 0.00 0.02 0.00 68 1014.5
20260905061611 63 180 0.0 3.5 0.00 0.02 0.00 66 1014.4
20260905060055 64 157 0.9 4.3 0.00 0.02 0.00 65 1014.4
20260905054555 64 154 0.9 4.3 0.00 0.02 0.00 63 1014.4
20260905053059 65 172 0.0 2.6 0.00 0.02 0.00 61 1014.4
20260905051554 66 182 0.0 2.6 0.00 0.02 0.00 60 1014.4
20260905050053 67 218 0.9 5.2 0.00 0.02 0.00 59 1014.5
20260905044558 67 215 0.0 3.5 0.00 0.02 0.00 58 1014.5
20260905043052 68 188 0.0 4.3 0.00 0.02 0.00 56 1014.4
20260905041554 68 248 0.9 3.5 0.00 0.02 0.00 56 1014.3
20260905040051 69 223 1.7 4.3 0.00 0.02 0.00 55 1014.2
20260905034553 70 142 1.7 5.2 0.00 0.02 0.00 54 1014.0
20260905033050 70 205 1.7 6.1 0.00 0.02 0.00 52 1013.8
20260905031549 71 188 3.5 8.7 0.00 0.02 0.00 50 1013.6
20260905030101 73 231 1.7 7.0 0.00 0.02 0.00 49 1013.6
20260905024548 74 238 1.7 4.3 0.00 0.02 0.00 43 1013.4
20260905023047 75 209 0.9 4.3 0.00 0.02 0.00 39 1013.3
20260905021547 76 207 0.9 3.5 0.00 0.02 0.00 37 1013.3
20260905020059 77 195 0.0 5.2 0.00 0.02 0.00 34 1013.3
20260905014548 78 232 0.9 2.6 0.00 0.02 0.00 35 1013.4
20260905013045 79 153 0.9 4.3 0.00 0.02 0.00 35 1013.4
20260905011543 80 234 1.7 6.1 0.00 0.02 0.00 36 1013.2
20260905010045 80 216 1.7 7.0 0.00 0.02 0.00 36 1013.2
20260905004557 80 153 1.7 6.1 0.00 0.02 0.00 36 1013.1
20260905003041 81 216 0.0 4.3 0.00 0.02 0.00 35 1013.2
20260905001540 80 132 2.6 6.1 0.00 0.02 0.00 36 1013.2
20260905000039 81 203 1.7 7.0 0.00 0.02 0.00 37 1013.3
20260904234538 80 284 0.0 5.2 0.00 0.02 0.00 37 1013.4
20260904233049 80 311 2.6 4.3 0.00 0.02 0.00 38 1013.4
20260904231537 81 205 1.7 5.2 0.00 0.02 0.00 39 1013.6
20260904230033 79 263 0.0 7.0 0.00 0.02 0.00 40 1013.7
20260904224532 79 185 0.0 7.0 0.00 0.02 0.00 44 1013.9
20260904223031 79 317 0.0 2.6 0.00 0.02 0.00 45 1014.1
20260904221530 78 134 0.9 3.5 0.00 0.02 0.00 44 1014.0
20260904220030 77 126 0.0 3.5 0.00 0.02 0.00 45 1014.2
20260904214529 77 288 0.0 2.6 0.00 0.02 0.00 45 1014.3
20260904213030 77 346 1.7 4.3 0.00 0.02 0.00 45 1014.2
20260904211527 77 237 0.9 5.2 0.00 0.02 0.00 46 1014.2
20260904210029 79 303 0.9 6.1 0.00 0.02 0.00 46 1014.3
20260904204524 77 330 0.0 4.3 0.00 0.02 0.00 44 1014.3
20260904203023 77 241 1.7 5.2 0.00 0.02 0.00 46 1014.4
20260904201520 77 294 1.7 5.2 0.00 0.02 0.00 49 1014.4
20260904200018 75 200 0.0 3.5 0.00 0.02 0.00 53 1014.4
20260904194512 73 140 1.7 6.1 0.00 0.02 0.00 55 1014.6
20260904193008 72 128 2.6 5.2 0.00 0.02 0.00 58 1014.7
20260904191506 71 53 1.7 4.3 0.00 0.02 0.00 61 1014.8
20260904190005 70 181 0.9 1.7 0.00 0.02 0.00 63 1014.9
20260904184505 70 288 0.0 4.3 0.00 0.02 0.00 63 1015.0
20260904183004 71 325 0.0 4.3 0.00 0.02 0.00 62 1015.0
20260904181501 71 360 0.0 5.2 0.00 0.02 0.00 62 1015.0
20260904180100 70 216 0.0 6.1 0.00 0.02 0.00 64 1015.0
20260904174606 69 108 0.9 6.1 0.00 0.02 0.00 67 1015.1
20260904173102 67 126 1.7 5.2 0.00 0.02 0.00 70 1015.0
20260904171558 66 211 0.0 3.5 0.00 0.02 0.00 72 1014.9
20260904170045 66 63 0.9 5.2 0.00 0.02 0.00 73 1014.9
20260904164548 65 117 1.7 5.2 0.00 0.02 0.00 75 1014.8
20260904163039 65 52 1.7 4.3 0.00 0.02 0.00 75 1014.6
20260904161536 64 145 0.9 1.7 0.00 0.02 0.00 78 1014.6
20260904160034 63 175 0.9 4.3 0.00 0.02 0.00 79 1014.5
20260904154533 62 161 0.0 5.2 0.00 0.02 0.00 81 1014.5
20260904153034 61 11 1.7 4.3 0.00 0.02 0.00 82 1014.4
20260904151529 61 11 1.7 4.3 0.00 0.02 0.00 84 1014.4
20260904150035 60 11 0.9 3.5 0.00 0.02 0.00 86 1014.2
20260904144522 59 15 0.9 4.3 0.00 0.02 0.00 87 1014.0
20260904143021 58 129 0.9 2.6 0.00 0.02 0.00 88 1013.9
20260904141518 59 152 0.0 4.3 0.00 0.02 0.00 87 1013.7
20260904140019 59 169 0.0 1.7 0.00 0.02 0.00 87 1013.6
20260904134514 59 194 0.0 2.6 0.00 0.02 0.00 86 1013.2
20260904133012 60 227 0.0 2.6 0.00 0.02 0.00 86 1013.1
20260904131509 60 171 0.0 2.6 0.00 0.02 0.00 85 1013.0